GPS BIIRM-7 (PRN 04)

Last updated on Tue Jun 21 2016 17:38:25 GMT+0000 (Coordinated Universal Time)

1 34661U 09014A 16173.46195640 -.00000058 00000-0 00000+0 0 9990 2 34661 56.3412 356.1587 0083260 50.2994 323.5383 2.00568334 53136
UTC large
Height (km)
Speed (km/s)
/
Latitude / Longitude
Inclination (degrees)
Orbital Period (minutes)
Azimuth
Elevation
Range (km)
Doppler Factor

Next 0 passes for location: London (51.5072 / 0.1276)

Sorry there are no passes over London.
GPS BIIRM-7 (PRN 04)